Location: Breezy Point Observatory
(38.9725°N, 81.7133°W)
Time: 21:30:23
(UTC-04:00)

Hubble Space Telescope - Visible Passes

Search period start: 28 March 2017 00:00
Search period end: 07 April 2017 00:00
Orbit: 538 x 542 km, 28.5° (Epoch: 27 March)

Date Brightness Start Highest point End Pass type
(mag) Time Alt. Az. Time Alt. Az. Time Alt. Az.
28 Mar 3.4 05:05:31 11° SE 05:05:31 11° SE 05:05:49 10° SE visible
28 Mar 2.7 06:41:46 10° SW 06:44:41 19° S 06:47:37 10° SE visible
29 Mar 3.5 04:56:01 11° SE 04:56:01 11° SE 04:56:11 10° SE visible
29 Mar 2.6 06:31:38 10° SW 06:34:35 19° S 06:37:32 10° SE visible
30 Mar 2.6 06:21:52 11° SW 06:24:29 19° S 06:27:24 10° SE visible
31 Mar 2.6 06:12:23 13° SW 06:14:22 18° S 06:17:14 10° SE visible
01 Apr 2.6 06:02:56 15° SSW 06:04:15 17° S 06:07:00 10° SE visible
02 Apr 2.6 05:53:32 15° SSW 05:54:08 16° S 05:56:42 10° SSE visible
03 Apr 2.8 05:44:11 14° S 05:44:11 14° S 05:46:17 10° SSE visible
04 Apr 3.1 05:34:56 12° S 05:34:56 12° S 05:35:43 10° SSE visible
